Tracking 19817 objects as of 17-Aug-2019
HD Live streaming from Space Station
objects crossing your sky now

FENGYUN 1C DEB

Track FENGYUN 1C DEB now!
10-day predictions


NORAD ID: 37456
Int'l Code: 1999-025EJA
Perigee: 594.6 km
Apogee: 756.7 km
Inclination: 99.0 °
Period: 98.1 minutes
Semi major axis: 7046 km
RCS: 0.0113 m2 (small)
Launch date: May 10, 1999
Source: People's Republic of China (PRC)
Launch site: Taiyaun Space Center, China (TSC)

Note: This is SATELLITE DEBRIS
aabbcc
Your satellite tracking list
Your tracking list is empty




NASA's NSSDC Master Catalog

Two Line Element Set (TLE):
1 37456U 99025EJA 19208.24137973  .00000616  00000-0  10838-3 0  9992
2 37456  98.9612 214.5416 0115041 141.6427 219.3026 14.67676648535092
Source of the keplerian elements: AFSPC